User: anonymous   Login
Location: Central Coast
(33.3208°S, 151.2336°E)
Time: 09:45:12
(UTC+10:00)
Language:

OTV 5 (USA 277) - Orbit

View from above orbital plane
View from above orbital plane
View from above satellite
View from above satellite

Ground track
Ground track

The orbit data is extracted from the following two-line orbital elements,

1 42932U 17052A   18169.98738483 0.00000000  00000-0  00000-0 0    03
2 42932  54.5145 169.9088 0004791  23.2395 336.7604 15.84813687    02
Epoch (UTC): 18 June 2018 23:41:50
Eccentricity: 0.0004791
inclination: 54.5145°
perigee height: 313 km
apogee height: 320 km
right ascension of ascending node: 169.9088°
argument of perigee: 23.2395°
revolutions per day: 15.84813687
mean anomaly at epoch: 336.7604°
orbit number at epoch: 0

The dashed part of the orbit path shows where the satellite is in the earth's shadow,  

DLR